Temp
17 16 15 16 16 17 17 18 19 19 19 20 21 21 21 21 22 23 24 25 25 25 24 23 21 20 20 19 19 19 18 19 19 19 18 18 18 18 18 18 17 17 17 17 16 16 17 17 17 17 17 17 17 17 17 17 18 18 18 18 18 18 19 19 19 18 18 18 17 17 17 16 16 16 16 16 16 16 16 16 16 16 16 17 17 17
16 15 15 16 17 18 18 18 19 19 19 19 20 21 21 21 22 23 25 25 25 25 22 21 20 20 20 19 18 19 18 19 19 19 18 18 18 18 18 18 18 17 17 16 16 16 17 17 17 17 17 17 17 17 17 18 18 18 18 18 19 18 18 19 19 18 18 17 17 17 16 16 15 16 16 16 16 16 16 16 16 16 16 16 16 16
15 15 15 17 18 19 19 19 19 19 19 19 19 20 20 21 22 23 25 25 24 24 21 20 20 20 19 19 18 18 18 18 18 18 18 18 18 18 18 18 18 17 17 17 17 17 17 17 16 16 16 16 17 17 17 17 17 18 18 18 18 18 18 18 18 17 17 16 17 17 16 15 15 15 16 16 16 16 16 16 16 16 16 16 16 16
14 15 17 18 18 19 19 18 19 19 19 19 18 19 20 21 21 22 23 24 23 22 20 19 20 19 19 19 18 18 18 18 18 18 18 18 18 18 18 18 18 18 17 17 17 17 17 17 16 16 16 16 16 16 16 16 17 17 17 18 18 18 18 17 17 17 16 16 16 16 15 16 16 16 16 16 15 15 16 16 16 16 16 16 15 15
14 16 18 18 18 18 18 18 19 19 18 18 18 19 20 21 21 22 23 23 21 20 20 20 19 19 20 19 18 18 18 18 17 17 18 17 18 18 18 18 17 17 17 17 17 17 17 17 16 16 16 16 16 16 16 16 16 17 17 18 18 18 17 17 16 16 16 16 16 15 15 15 16 15 16 16 15 15 15 15 15 15 15 15 15 15
14 16 18 18 18 18 18 18 18 18 18 18 19 19 20 21 22 22 22 22 21 20 20 20 20 20 20 20 19 18 18 18 17 17 17 17 17 18 18 18 17 17 17 17 17 17 17 16 17 16 16 16 16 16 16 16 16 16 17 17 17 17 16 16 16 16 16 16 15 15 15 15 15 15 15 15 15 15 15 14 14 14 14 14 14 14
15 16 17 17 17 18 18 17 18 19 18 18 19 20 21 21 21 22 22 22 21 20 20 21 21 20 19 20 20 18 18 18 18 17 17 17 17 17 17 18 18 17 17 17 17 17 17 16 16 16 16 16 16 16 16 16 16 16 16 16 16 16 16 16 16 16 16 16 16 16 16 16 16 15 14 14 14 14 14 14 13 13 13 13 13 13
16 16 16 17 17 17 17 17 18 19 19 18 20 21 21 21 21 22 22 21 20 20 20 21 21 20 19 20 20 19 19 19 18 18 18 17 17 17 17 18 18 18 17 17 17 17 16 16 16 16 16 16 16 16 16 16 16 16 16 16 16 16 16 16 16 16 16 16 16 16 16 16 16 15 14 14 14 14 13 13 13 13 13 13 13 13
17 16 16 17 17 17 17 18 19 19 19 20 21 22 21 21 22 22 22 21 20 20 20 20 21 20 19 20 20 19 19 19 19 18 18 17 17 17 17 17 18 18 18 17 17 17 17 16 16 16 17 17 16 16 16 16 16 16 16 16 16 16 16 16 16 16 16 16 16 16 16 16 15 15 14 14 13 13 13 13 12 12 12 12 12 12
17 17 17 17 16 17 18 19 20 19 20 21 22 22 22 22 22 22 22 21 21 20 20 20 20 20 20 19 20 19 19 19 19 18 18 18 18 18 18 17 18 18 18 17 17 17 17 17 16 16 16 17 17 17 16 16 16 16 16 16 16 15 16 16 16 16 16 16 16 16 16 15 15 14 14 13 13 12 12 12 12 12 12 12 12 12
17 18 18 18 17 18 19 20 20 20 21 22 22 22 22 22 22 22 21 21 20 20 20 20 20 20 20 19 20 20 20 20 20 19 18 18 18 18 18 17 18 18 17 17 17 17 17 17 16 16 16 17 17 17 16 16 16 16 16 16 15 15 16 16 16 16 16 16 16 16 16 15 15 14 14 13 12 12 12 12 11 11 11 11 11 11
17 17 17 18 19 19 20 20 20 21 22 22 22 21 21 21 21 21 20 20 20 20 20 20 20 20 20 20 20 20 21 21 20 19 19 18 18 18 18 18 18 18 17 17 17 17 17 17 16 16 16 16 16 16 16 16 16 16 16 15 15 15 15 16 16 16 16 16 16 16 16 15 15 14 14 13 12 12 12 11 11 11 11 11 11 11
16 16 17 19 20 20 20 19 19 20 21 21 21 21 20 20 20 20 20 20 20 20 20 20 20 20 20 21 21 20 21 21 21 20 20 19 18 18 18 18 18 18 17 17 17 17 17 16 16 16 16 16 16 16 16 16 16 16 16 15 15 15 15 16 16 16 16 16 16 16 16 15 15 14 14 13 13 12 12 11 11 11 11 11 11 11
15 16 17 18 19 20 20 18 18 19 20 20 20 20 19 19 19 19 19 20 20 20 20 20 20 20 20 22 22 21 21 22 21 21 20 19 19 18 18 18 18 17 17 17 17 17 17 16 16 16 16 16 16 16 16 16 16 15 15 15 15 16 15 16 16 16 16 16 16 16 15 15 15 14 14 13 13 12 12 11 11 11 11 11 11 11
14 15 17 17 18 20 20 19 19 19 20 20 20 20 20 20 19 19 19 20 20 20 20 20 20 20 21 21 21 21 22 22 22 21 20 19 19 19 18 18 17 17 17 17 17 17 17 16 16 16 16 16 16 16 16 15 15 15 15 15 16 16 15 16 16 16 16 15 15 15 15 15 14 14 14 13 13 12 12 12 11 11 11 11 10 10
14 15 17 18 19 20 20 20 21 21 20 20 21 21 20 20 21 20 20 20 20 20 20 20 20 20 21 21 19 20 22 21 21 20 19 18 18 18 18 17 17 17 17 17 17 17 17 16 16 16 16 16 15 15 15 15 15 15 15 15 16 16 15 15 15 15 15 15 15 15 14 14 14 14 13 13 12 12 12 12 11 11 11 10 10 10
15 15 18 19 19 20 20 21 22 21 20 20 20 20 20 21 22 21 20 19 19 20 20 20 20 20 21 21 20 20 21 20 20 19 18 18 18 18 17 17 17 17 17 17 17 17 17 16 16 16 16 15 15 15 15 15 15 15 15 15 16 16 15 15 15 15 15 15 15 14 14 14 14 13 13 13 12 12 12 11 11 11 10 10 10 10
15 16 19 19 18 20 21 21 22 22 22 20 20 20 21 21 22 21 20 20 19 20 20 19 20 20 20 21 19 19 20 19 19 18 18 17 18 18 17 17 17 17 17 17 17 16 16 16 16 16 15 15 15 15 14 14 14 15 15 15 15 15 15 15 15 15 15 15 14 14 14 13 13 13 13 13 12 12 11 11 11 10 10 10 10 10
16 17 19 20 19 20 21 21 21 21 22 21 21 22 22 21 21 20 20 20 20 20 20 20 20 20 20 20 18 18 19 18 18 18 17 17 17 17 17 17 17 17 17 17 17 16 16 16 16 15 15 15 15 15 14 14 14 15 15 15 15 15 15 15 15 15 15 15 14 14 13 13 13 13 13 12 12 11 11 11 10 10 10 10 10 10
16 16 18 20 20 21 21 20 20 20 21 21 21 23 23 22 21 21 20 20 20 20 20 20 20 20 21 20 18 19 19 18 18 18 18 18 17 17 17 17 17 17 17 17 16 16 16 16 16 15 15 15 15 14 14 14 14 14 15 15 15 15 15 15 15 15 14 14 14 14 13 13 13 13 12 12 12 11 11 11 10 10 10 10 10 10
16 16 17 19 20 20 20 20 20 20 20 20 20 21 22 22 21 21 21 20 21 21 20 20 20 21 22 20 19 19 19 18 19 18 18 18 17 17 17 17 17 17 17 16 16 16 16 16 16 15 15 15 14 14 14 14 14 14 14 15 15 15 14 14 14 14 14 14 14 13 13 13 12 12 12 12 11 11 11 10 10 10 10 10 10 10
16 16 17 18 19 19 20 21 21 21 21 21 21 20 21 21 21 21 20 20 21 21 20 20 20 21 23 21 19 20 19 19 19 19 18 18 17 17 17 17 17 17 17 17 16 16 16 16 15 15 15 14 14 14 13 13 13 14 14 14 14 14 14 14 14 14 14 13 13 13 13 12 12 12 11 11 11 11 10 10 10 10 10 10 10 10
17 16 16 17 18 19 20 22 22 22 22 21 21 21 21 21 21 21 20 20 21 20 20 20 20 22 23 21 19 20 19 19 19 19 18 18 17 17 17 17 17 17 17 17 16 16 16 16 15 15 14 14 13 13 13 13 13 13 14 14 14 14 14 14 13 13 13 13 13 12 12 12 12 11 11 11 11 11 10 10 10 10 10 10 9 9
17 17 16 17 18 20 21 21 21 22 22 22 21 21 21 22 22 22 22 21 21 21 20 20 20 22 23 20 19 20 19 19 19 18 18 17 17 17 17 17 17 17 17 16 16 16 15 16 15 15 14 14 13 13 13 13 13 13 13 13 13 13 13 13 13 13 13 12 12 12 12 11 11 11 11 11 11 10 10 10 10 10 10 10 9 9
17 17 16 16 18 19 20 20 20 21 21 22 22 22 22 23 22 22 22 21 21 21 21 21 21 22 22 20 19 20 19 19 19 18 18 17 16 17 17 17 17 17 17 16 16 15 15 15 15 15 14 13 13 13 12 12 12 12 13 13 13 13 13 13 13 12 12 12 12 12 11 11 11 11 11 10 10 10 10 10 10 10 10 9 9 9
17 16 16 17 17 18 18 19 19 20 21 22 22 23 22 23 22 22 21 21 21 20 20 21 21 22 21 19 19 20 19 19 18 18 18 17 16 17 17 17 17 16 16 16 15 15 15 15 15 15 14 14 13 13 12 12 12 12 12 12 13 13 12 12 12 12 12 12 11 11 11 11 11 11 11 10 10 10 10 10 10 10 9 9 10 9
17 17 17 18 18 18 19 20 19 19 21 21 22 22 23 22 22 22 21 21 21 21 20 21 22 22 21 19 19 20 19 19 18 17 17 17 16 17 17 17 17 16 16 16 16 15 15 15 15 14 14 14 13 13 12 12 12 12 12 12 12 12 12 12 12 12 12 11 11 11 11 11 11 11 10 10 10 10 10 10 9 9 9 9 10 9
17 17 17 18 18 19 20 21 20 20 21 22 21 22 23 23 22 21 21 21 21 21 21 21 21 22 22 20 19 19 19 18 18 17 17 17 16 17 17 17 16 16 16 16 16 15 15 15 14 14 14 14 13 13 12 12 12 12 12 12 12 12 12 12 11 11 11 11 11 11 11 11 11 10 10 10 10 10 9 9 9 9 9 9 9 9
17 17 18 18 19 19 19 20 21 21 22 22 23 23 23 23 22 22 23 22 22 22 22 22 21 22 23 20 19 19 19 18 18 17 17 17 17 17 17 16 16 16 16 16 15 16 15 15 15 14 14 13 13 13 12 12 12 12 12 11 11 12 11 11 11 11 11 11 11 11 11 11 10 10 10 10 10 9 9 9 9 9 9 9 9 9
18 19 19 18 20 19 18 19 21 22 22 22 23 24 23 23 22 23 23 21 21 22 22 21 21 22 22 20 19 19 19 18 18 17 17 17 17 17 17 16 16 16 16 16 16 16 15 15 15 15 14 13 13 12 12 12 11 11 11 11 11 11 11 11 11 11 11 11 11 11 11 10 10 10 10 10 9 9 9 9 9 9 9 9 8 8
18 19 18 18 20 20 19 19 21 23 22 22 22 23 23 22 21 22 21 20 21 21 20 19 20 21 21 19 19 19 18 18 17 17 17 17 17 17 17 16 16 16 16 16 16 16 15 15 15 15 14 13 13 12 12 11 11 11 11 11 11 11 11 11 11 11 11 11 11 11 10 10 10 10 10 9 9 9 9 9 8 8 8 8 8 7
19 18 18 19 20 20 19 19 20 22 22 21 21 21 22 22 22 22 21 21 22 22 20 19 21 22 21 19 19 19 18 18 17 17 17 17 17 17 17 16 16 16 16 16 16 16 15 15 15 15 14 13 13 12 12 12 11 11 11 11 11 11 11 11 11 11 10 11 11 10 10 10 10 10 10 9 9 9 9 8 8 8 8 8 7 7
19 19 19 19 19 20 18 18 20 22 22 21 21 21 22 22 22 22 22 21 21 21 21 22 23 22 19 19 19 18 18 18 17 17 17 17 17 17 17 17 17 16 16 16 16 16 15 15 15 15 14 13 13 12 12 12 11 11 11 11 11 11 10 10 11 10 10 10 10 10 10 10 10 10 9 9 9 9 8 8 8 8 8 8 7 7
18 20 19 17 19 20 18 18 20 21 21 20 20 20 21 22 23 23 21 20 19 19 20 22 22 20 18 19 20 19 18 18 18 17 18 17 17 17 17 17 17 16 16 16 16 16 15 15 15 15 14 14 13 13 12 12 12 11 11 11 11 10 10 10 10 10 10 10 10 10 10 10 10 10 9 9 9 8 8 8 8 8 8 8 7 7
19 20 18 17 18 19 18 19 21 20 20 20 19 17 18 20 22 22 20 18 19 19 19 21 22 21 19 19 20 19 18 19 18 17 17 18 17 17 17 17 17 17 16 16 16 16 15 15 15 14 14 14 13 13 12 12 12 11 11 11 10 10 10 10 10 10 10 10 10 10 10 10 10 9 9 9 9 8 8 8 8 8 8 8 7 7
19 20 19 17 17 18 19 20 20 19 19 20 19 17 17 18 20 22 21 20 19 18 19 22 22 20 19 19 19 18 18 18 18 17 17 17 17 17 17 17 17 17 17 16 16 16 15 15 15 14 14 14 13 13 12 12 12 11 10 10 10 10 10 10 10 10 10 10 10 10 10 10 9 9 9 9 8 8 8 8 8 7 7 7 7 7
18 19 20 18 17 18 19 19 19 19 19 21 21 19 19 20 22 23 22 21 20 18 18 20 20 18 18 19 18 18 18 18 18 17 17 17 17 17 17 17 17 17 17 16 16 16 15 15 15 14 14 14 13 13 12 12 11 11 10 10 10 10 10 10 9 9 9 9 9 9 9 10 10 9 9 9 8 8 8 8 8 7 7 7 7 7
17 18 19 19 17 17 19 19 19 19 20 20 21 21 20 19 20 22 22 22 21 19 17 19 19 17 18 19 18 18 18 18 18 18 17 17 17 17 17 17 17 16 16 16 16 15 15 15 14 14 14 13 13 13 12 12 11 11 10 10 10 10 9 9 9 9 9 9 9 9 9 9 10 9 9 8 8 8 8 8 8 7 7 8 7 7
17 17 19 19 18 18 19 20 18 19 20 20 21 21 19 16 17 21 22 21 21 20 17 18 19 17 17 18 17 18 19 19 19 19 18 16 16 17 17 17 16 16 16 16 15 15 15 14 14 14 14 13 13 13 13 12 11 11 10 10 10 10 9 9 9 9 9 9 9 9 9 9 9 9 9 8 8 8 8 8 8 7 7 8 8 7
18 18 19 19 18 17 18 19 18 19 20 19 20 19 17 16 19 22 21 20 21 20 18 18 19 18 17 17 17 18 20 20 21 20 18 16 16 16 16 16 16 15 15 15 15 15 14 14 14 14 13 13 13 13 12 12 11 11 10 10 10 10 9 9 9 9 9 9 9 9 9 9 9 9 9 9 8 8 8 8 8 7 7 7 7 7
18 18 17 18 18 18 18 19 18 19 19 19 19 18 17 18 21 22 20 20 20 20 18 18 18 17 16 17 17 19 20 21 21 20 17 16 16 16 15 15 15 15 14 14 15 15 14 14 14 14 13 13 13 13 12 12 11 11 10 10 10 10 10 9 9 9 9 9 9 9 9 9 9 9 9 9 9 8 8 8 8 7 7 7 7 7
18 18 16 17 18 17 17 18 18 18 19 18 17 18 19 21 22 20 19 19 19 19 18 18 18 17 16 17 18 19 20 19 19 18 17 16 16 16 15 14 14 14 14 14 14 14 14 13 13 13 13 13 13 13 12 12 11 11 10 10 10 10 10 9 9 8 8 9 9 9 9 9 9 9 9 9 9 8 8 8 7 7 7 7 7 7
17 18 17 17 17 16 17 18 18 19 19 17 17 19 20 20 20 20 19 18 18 18 18 18 18 17 16 17 18 18 19 18 18 17 16 16 16 16 15 15 14 14 14 13 13 14 14 13 13 13 13 13 13 12 12 12 11 11 10 10 10 10 10 9 9 8 8 8 8 8 8 9 9 9 9 9 8 8 8 7 7 7 7 7 7 7
16 17 18 18 17 17 18 18 18 19 18 16 17 20 20 18 18 19 20 19 18 18 17 18 19 18 16 17 18 17 18 18 17 16 15 15 16 15 15 14 14 13 13 13 13 13 13 13 13 13 13 13 13 12 12 12 11 11 10 10 10 10 9 9 9 9 9 8 8 8 8 8 9 9 9 9 8 8 8 8 7 7 7 7 7 7
16 17 18 17 16 17 18 18 17 18 17 16 17 18 18 17 17 18 19 19 19 18 17 18 19 18 17 17 17 17 17 17 16 15 15 15 15 15 14 14 14 13 13 13 13 13 13 13 13 13 13 12 12 12 12 12 11 11 10 10 10 10 9 9 9 9 9 8 8 8 8 8 8 9 9 9 8 8 8 8 7 7 7 7 7 8
16 15 16 17 16 16 16 17 17 17 17 17 17 17 17 17 17 18 19 19 18 18 17 18 18 18 17 17 17 17 17 17 16 15 15 15 15 14 14 14 13 13 13 13 13 13 13 13 13 13 12 12 12 12 12 12 11 11 11 10 10 10 9 9 9 9 8 8 8 8 8 8 8 8 8 8 8 8 8 8 8 8 7 7 8 8
16 15 16 17 17 17 17 17 17 17 17 17 17 17 17 17 17 17 19 19 18 18 18 18 17 16 16 17 18 18 17 16 16 15 15 14 14 14 14 14 13 12 12 12 13 13 13 13 13 12 12 12 12 12 12 12 12 11 11 11 10 10 10 9 9 8 8 8 8 8 8 8 8 8 8 8 8 8 8 8 8 8 8 8 8 8
16 16 17 17 17 17 17 17 16 16 16 16 16 17 17 18 18 17 17 17 17 17 17 17 17 17 17 17 18 18 16 15 15 15 14 14 14 13 14 13 12 12 12 12 13 13 13 13 12 12 12 12 12 12 12 12 12 11 11 10 10 9 9 9 8 8 8 8 8 8 8 8 8 8 8 8 8 8 8 8 8 8 8 8 8 8
16 16 17 16 16 17 16 16 16 17 17 17 17 17 17 17 18 18 17 18 18 18 18 17 17 17 17 17 16 17 16 15 14 15 14 14 14 13 13 12 12 12 12 12 12 13 13 12 12 12 12 12 12 12 12 12 11 11 10 10 10 9 9 8 8 8 8 8 8 8 8 8 8 8 8 8 8 8 8 9 9 9 9 9 9 9
16 17 16 16 17 18 17 17 17 18 18 18 17 17 16 15 17 19 19 18 19 18 18 18 17 16 16 15 15 17 17 15 14 14 14 13 13 13 12 11 11 11 12 12 12 13 13 12 12 12 12 12 12 12 12 12 11 11 10 10 10 9 9 8 8 8 8 8 8 8 8 8 8 8 8 8 8 8 8 8 8 9 9 9 9 9
17 17 16 17 18 18 18 17 17 17 18 17 16 16 15 15 17 19 18 17 18 17 18 19 18 18 18 16 14 15 17 16 14 14 14 13 12 12 11 11 11 11 11 12 12 12 12 12 12 12 12 12 12 12 12 12 11 11 11 10 10 9 9 9 8 8 8 8 8 8 8 8 8 8 8 8 8 8 8 8 8 8 9 9 9 9
Height
753 760 761 755 750 749 750 752 753 751 752 754 755 755 756 757 757 752 746 740 739 748 755 757 764 771 772 772 773 773 775 777 779 781 781 781 782 782 783 784 785 787 787 787 788 790 791 792 793 794 795 796 798 800 801 803 804 806 807 809 810 811 812 813 813 814 815 817 819 822 824 826 827 828 829 831 832 833 834 834 834 834 834 833 832 832
754 759 755 747 747 747 750 753 752 752 754 756 757 756 756 757 754 748 743 740 738 745 757 762 767 772 771 772 773 773 775 777 777 780 780 780 781 781 783 784 785 786 786 787 788 789 790 792 793 794 795 796 798 800 802 803 804 806 807 809 810 811 812 813 814 815 816 818 819 821 824 826 827 829 830 831 833 834 834 835 835 835 834 834 833 833
757 753 746 746 747 745 747 750 752 754 755 758 761 759 760 758 753 748 742 740 740 747 762 767 768 774 772 772 775 774 776 777 777 778 778 780 781 782 782 783 784 785 786 786 787 788 789 791 793 794 795 797 798 800 801 803 804 806 807 808 810 811 812 813 815 816 817 819 820 822 824 826 828 830 831 832 833 834 834 835 835 835 834 834 834 833
758 749 743 745 744 745 749 750 751 756 756 758 762 764 763 757 755 754 747 744 746 752 762 767 770 775 774 775 777 777 777 778 779 778 778 780 781 781 781 780 781 782 783 786 786 787 789 791 794 795 796 797 799 800 802 803 805 806 807 808 810 811 813 814 816 817 818 820 822 823 825 827 828 830 832 833 834 835 834 834 835 834 834 834 834 834
752 744 740 742 744 746 750 751 751 756 758 757 759 764 763 757 754 752 749 749 753 759 760 765 779 781 775 778 779 777 779 779 780 780 780 781 781 781 781 780 780 780 781 783 785 786 788 791 793 794 795 797 798 800 802 804 805 806 807 808 810 811 813 814 816 817 818 819 822 824 826 828 829 831 832 833 834 835 835 834 835 834 834 834 834 834
751 742 738 742 745 746 749 752 751 753 758 759 757 758 757 755 753 750 751 751 759 771 764 762 784 790 776 776 779 778 779 780 781 782 781 782 782 781 781 780 779 780 781 782 784 786 788 790 792 793 795 796 798 800 802 804 805 806 807 809 810 812 813 815 816 817 818 819 821 823 825 827 829 831 833 834 834 835 835 835 835 835 835 835 834 834
748 742 739 742 744 746 750 752 748 748 758 763 755 751 753 754 754 752 752 753 762 772 764 757 774 789 783 776 775 777 779 780 780 781 781 780 780 780 779 778 779 779 780 783 785 786 788 789 791 793 795 797 799 801 802 803 805 806 807 809 810 812 813 814 816 817 818 819 821 823 825 826 828 830 832 834 835 835 835 835 836 836 836 836 835 834
741 741 743 743 743 746 749 749 745 744 755 760 749 745 751 752 755 754 751 757 763 765 766 761 762 779 787 775 769 774 777 779 779 779 778 777 777 778 777 777 777 777 778 782 785 786 787 788 790 792 795 797 799 800 802 803 805 807 807 809 810 812 813 814 816 817 818 820 822 824 826 827 828 829 831 833 835 836 836 836 836 837 837 837 836 835
734 741 743 742 745 745 743 741 740 743 751 751 742 742 747 749 752 751 751 757 761 765 774 772 762 774 786 773 766 772 775 777 777 775 775 774 774 774 775 775 775 776 777 780 783 784 786 788 790 792 794 796 798 800 802 803 805 807 808 809 810 811 813 814 815 817 819 821 822 824 826 827 829 829 831 833 834 836 836 836 837 838 838 838 837 836
732 734 735 739 744 741 737 736 737 742 747 741 737 739 743 747 748 749 754 757 761 769 775 772 764 772 782 774 768 772 774 774 772 770 770 770 771 770 771 773 773 774 776 778 781 783 785 788 790 792 794 796 798 800 802 804 805 807 808 809 810 811 812 813 815 818 820 822 823 824 826 827 829 830 831 833 834 836 836 837 838 839 839 839 838 837
731 729 730 733 736 734 733 734 734 738 741 736 738 742 745 749 748 751 756 757 768 774 766 763 763 766 774 772 766 764 761 759 761 765 767 767 768 767 768 771 771 772 774 776 780 783 785 788 790 792 794 795 797 799 801 803 805 806 807 808 809 811 811 813 816 818 820 822 823 824 826 827 828 829 830 832 833 835 837 838 839 840 841 840 839 838
732 732 731 726 725 728 731 734 733 734 734 735 740 746 754 757 753 758 761 762 775 774 757 755 759 765 771 765 759 754 746 745 751 757 760 761 762 763 764 767 768 770 773 776 779 782 784 786 789 791 793 794 796 799 801 802 804 805 806 808 809 811 812 813 816 818 820 822 823 824 826 828 828 828 829 831 833 835 837 839 840 840 841 841 840 839
736 733 731 726 722 724 731 737 738 735 734 739 744 750 762 768 768 771 771 770 774 764 753 753 756 766 766 752 748 749 742 740 741 742 745 750 754 757 760 763 766 769 772 775 777 780 782 784 786 789 791 793 795 797 800 801 803 804 806 808 809 810 812 814 816 818 820 821 823 824 826 828 828 828 829 831 833 836 837 839 840 841 842 841 840 840
741 735 731 730 726 720 725 736 740 738 737 740 744 750 761 768 775 780 775 771 768 757 751 752 756 766 761 742 737 738 734 732 732 734 738 744 749 753 756 760 764 768 771 773 775 777 779 781 784 787 790 792 794 796 798 800 802 804 805 807 808 810 812 814 816 818 819 821 822 824 826 827 828 828 830 832 834 836 838 839 840 841 842 842 841 840
746 742 731 728 726 718 719 727 729 732 736 737 738 744 752 754 760 769 767 765 763 756 755 757 760 762 753 739 734 728 725 728 731 736 741 746 751 753 757 761 764 767 769 771 773 775 777 780 782 785 788 791 792 794 797 799 801 803 805 806 807 809 812 813 815 817 819 821 822 824 825 826 827 828 830 833 835 837 838 839 841 842 843 842 841 840
743 740 723 718 719 714 717 720 718 726 737 737 734 740 746 741 740 751 757 757 755 754 757 760 757 750 739 733 732 727 725 730 735 740 746 750 753 754 758 762 763 765 766 769 771 773 776 779 781 784 787 789 791 793 796 798 800 802 804 806 807 809 811 813 815 817 819 821 822 823 824 825 827 829 831 834 836 837 839 840 841 842 843 842 841 841
740 736 719 715 718 713 715 716 713 721 732 735 737 738 736 728 729 743 754 758 757 756 756 757 752 748 741 735 732 730 730 735 739 742 747 751 752 754 758 760 762 763 764 767 769 771 774 777 779 782 785 788 790 793 795 797 799 801 802 804 806 808 811 813 815 817 818 820 822 823 824 825 827 829 831 833 835 837 839 841 842 842 843 842 842 841
733 731 716 714 720 713 709 712 712 714 719 730 737 731 728 730 732 740 750 757 761 759 757 756 752 750 748 742 738 737 737 740 741 743 747 751 752 753 755 757 759 761 763 766 768 770 772 775 778 781 784 787 790 792 794 797 799 800 802 804 806 808 810 813 814 816 818 820 822 823 824 826 828 830 832 834 836 837 839 841 842 843 842 842 842 842
728 730 717 709 715 712 707 713 719 715 710 719 725 720 725 739 743 744 750 755 759 761 760 757 754 749 744 743 744 742 740 741 741 744 747 748 748 750 752 755 758 761 763 765 767 769 771 774 776 780 783 786 789 792 794 797 799 801 803 804 806 808 810 813 815 817 819 820 822 823 825 827 829 830 832 834 836 838 840 841 842 842 842 842 843 843
728 731 722 708 706 708 710 716 724 722 714 715 719 718 720 730 735 738 744 747 749 757 762 758 756 748 735 735 739 734 732 735 738 741 742 741 743 746 749 753 755 758 761 762 765 768 770 773 775 779 782 785 788 791 794 797 799 801 803 805 806 809 811 813 815 817 819 821 822 824 825 827 829 831 833 835 837 839 840 841 842 842 842 842 843 844
729 732 727 713 706 711 714 712 713 716 717 720 725 726 722 722 727 730 736 741 739 747 757 759 759 744 721 722 729 724 723 727 728 731 733 735 740 743 746 749 752 755 758 760 763 766 769 773 775 778 782 785 788 791 794 797 799 800 803 805 806 808 811 813 815 817 819 821 822 824 826 828 830 832 834 836 838 839 840 841 842 842 843 843 844 844
729 730 727 720 713 713 709 701 701 705 711 718 723 725 722 721 728 736 743 742 733 737 747 750 750 733 709 711 719 716 717 719 718 721 725 731 737 740 743 746 749 753 756 758 761 764 768 772 775 778 781 784 787 791 794 796 798 800 803 805 806 809 811 813 815 817 819 821 823 825 826 829 831 833 835 837 838 839 840 841 842 842 843 843 844 845
724 727 729 725 716 710 703 696 698 700 704 713 716 717 720 719 723 733 741 738 731 736 742 742 740 723 704 706 710 709 713 714 714 718 723 729 733 736 740 744 748 752 754 757 760 763 767 770 773 777 780 784 786 790 794 796 798 800 802 805 807 809 811 813 816 818 820 822 823 825 827 829 832 834 835 837 838 839 840 841 842 843 843 844 845 846
722 726 729 725 714 705 700 696 697 698 702 712 713 713 716 715 714 718 723 725 727 733 735 740 741 721 704 707 709 708 713 714 717 720 723 729 733 736 741 743 748 752 754 758 760 763 766 768 773 777 780 784 786 790 794 795 797 800 802 805 807 809 812 813 816 818 820 822 824 826 828 830 832 834 836 837 838 839 840 841 843 844 844 845 846 847
720 724 727 728 723 714 710 710 711 707 705 709 709 708 708 707 710 715 718 721 726 728 727 732 735 718 706 711 712 712 716 718 722 725 726 732 735 738 742 744 748 752 754 758 761 763 766 768 773 776 779 783 786 790 793 794 797 799 801 804 806 809 812 814 816 818 819 822 824 826 829 831 833 835 836 837 838 839 841 842 843 845 845 846 846 847
717 722 723 727 728 725 722 719 716 711 706 704 702 702 703 704 708 714 720 722 726 731 729 723 721 714 711 715 714 714 719 721 724 726 728 733 736 737 741 743 747 751 754 757 760 763 766 769 773 776 777 782 786 789 792 794 797 799 802 804 806 808 811 813 816 818 820 822 824 827 829 831 833 835 836 837 838 839 841 842 844 845 846 847 847 847
717 720 717 717 717 714 709 703 703 703 702 702 701 700 701 703 705 710 718 719 718 726 727 717 713 711 711 718 718 715 718 720 723 726 727 732 735 737 740 742 745 749 752 756 759 762 766 769 772 775 777 780 784 788 791 793 796 799 801 804 806 808 810 813 815 818 820 822 824 827 829 831 833 835 836 837 838 840 842 843 845 846 846 847 847 847
721 720 714 711 708 703 696 692 695 697 696 698 700 700 698 700 706 710 712 712 713 721 722 717 717 711 705 714 718 713 715 718 721 724 725 729 733 736 740 743 746 750 752 755 759 762 765 768 771 774 776 779 783 786 790 793 795 798 800 802 805 807 809 812 815 817 820 822 824 827 829 831 833 835 836 837 839 841 843 844 845 846 846 847 848 848
720 717 709 706 701 698 697 692 689 691 692 692 694 697 697 698 704 703 702 706 708 708 708 711 716 708 700 709 713 708 708 711 715 720 722 727 733 735 740 744 747 750 753 755 758 760 763 766 768 771 775 778 781 785 789 792 795 797 799 801 803 806 808 811 814 817 819 822 824 827 829 831 833 834 836 838 839 841 843 844 845 846 846 848 849 849
714 708 703 703 698 696 698 694 686 686 691 692 690 691 693 697 701 698 699 706 706 702 703 708 712 706 700 705 707 703 705 709 714 720 722 727 732 734 738 742 745 748 751 752 755 758 760 764 767 770 774 777 780 783 787 790 793 795 797 799 802 805 807 810 813 816 818 821 824 826 828 831 832 834 836 838 840 841 843 844 845 846 847 848 849 850
709 704 702 702 699 697 697 693 688 685 688 693 695 694 693 697 701 700 703 708 707 708 712 715 715 710 703 704 707 707 709 713 717 722 723 726 729 732 736 740 743 746 748 751 754 757 760 764 767 770 772 776 779 781 785 788 791 793 795 798 801 803 806 809 812 815 818 820 823 825 827 830 832 834 836 838 839 841 843 844 845 846 848 849 850 851
703 705 703 701 701 700 698 697 692 686 687 695 700 698 694 694 697 698 700 702 701 704 713 717 713 707 702 703 707 709 710 713 717 721 723 726 727 730 734 737 740 743 746 749 753 756 759 762 765 768 771 774 778 780 783 787 790 792 793 796 799 802 805 808 811 814 817 819 822 824 827 829 831 833 835 837 839 841 842 844 846 847 848 849 850 851
701 701 700 703 704 702 703 703 693 686 694 701 699 694 691 693 695 694 695 699 700 701 706 706 699 697 701 704 706 711 714 714 716 717 719 723 726 728 730 732 736 739 742 746 749 752 756 758 761 765 769 772 776 779 781 785 788 790 791 794 798 801 804 807 809 812 815 818 821 823 826 829 830 832 835 837 839 841 842 844 846 847 848 849 851 851
701 698 700 707 704 699 704 702 692 695 707 706 698 695 692 690 690 692 698 703 704 703 702 697 693 697 705 703 701 707 709 706 708 709 710 715 720 725 728 730 733 736 740 744 747 750 753 757 761 765 768 771 775 777 780 783 785 788 790 792 796 799 802 805 808 811 814 817 820 822 825 828 829 831 834 836 838 840 842 844 846 847 848 849 851 851
699 697 701 708 705 700 703 699 699 710 711 699 697 701 698 693 690 693 702 705 704 704 702 695 691 695 700 699 697 700 701 700 704 708 710 712 714 718 724 728 731 735 739 742 745 749 753 757 760 764 767 770 774 777 780 782 784 787 790 792 795 797 800 803 806 809 813 816 818 821 824 826 828 831 833 836 838 840 842 844 845 847 849 850 851 851
698 696 699 708 708 704 703 701 706 713 705 693 695 701 700 699 694 691 699 703 700 703 702 693 690 695 699 701 701 702 704 706 710 713 714 714 715 717 719 722 726 730 733 736 740 744 748 752 756 759 763 767 772 775 778 781 784 786 789 792 794 797 799 802 805 808 811 814 816 819 822 824 827 830 832 835 838 839 841 843 845 847 849 850 851 852
699 696 696 704 710 708 708 708 708 709 705 697 695 694 693 693 688 685 695 702 699 701 703 696 695 702 703 703 706 707 708 713 717 718 716 715 716 717 718 720 723 726 729 732 737 741 745 750 754 758 762 766 770 773 776 780 783 785 788 792 794 796 798 800 803 806 809 811 814 817 820 823 825 828 831 834 837 839 840 843 845 847 849 850 851 852
699 696 695 701 710 709 707 708 710 713 712 703 693 688 687 690 688 681 689 700 697 698 702 699 698 705 705 704 709 710 710 719 723 718 713 714 716 718 720 723 725 727 731 734 738 743 747 751 755 759 762 765 768 771 774 778 781 784 787 790 792 795 797 799 801 803 806 810 813 816 819 822 824 827 830 833 836 838 840 842 845 847 849 850 851 852
699 699 695 698 707 708 704 708 715 715 709 701 693 687 688 695 692 683 692 705 700 694 700 701 699 705 707 705 708 709 713 723 723 711 707 711 713 715 719 722 725 728 732 735 738 742 745 750 754 758 761 764 767 770 773 776 779 782 785 788 790 793 795 796 799 801 804 808 812 815 818 821 824 827 829 832 835 837 839 842 844 847 849 851 852 852
698 698 696 699 707 711 708 710 715 710 702 697 692 691 694 694 687 688 706 714 700 691 698 700 699 703 707 707 709 708 710 714 710 700 700 706 711 713 716 719 723 726 730 734 738 742 745 748 752 755 759 762 765 768 772 774 778 780 783 786 789 791 793 795 798 801 804 808 811 815 818 820 823 826 829 832 835 837 839 842 844 847 849 851 852 852
703 702 707 709 708 710 709 709 712 708 699 695 693 692 693 689 688 700 712 708 697 695 698 697 698 703 705 707 708 706 701 699 697 696 699 705 709 713 715 718 722 726 729 733 736 740 744 747 750 752 756 759 763 767 770 773 776 779 782 785 787 790 792 795 798 801 805 808 811 814 817 820 823 826 828 831 834 837 839 841 843 846 849 851 852 852
708 708 715 714 710 714 715 711 713 709 698 693 695 691 687 689 697 706 705 699 696 698 697 696 699 702 703 703 703 700 696 696 697 699 701 704 706 710 714 719 722 726 729 733 735 738 741 745 749 752 756 759 762 765 768 771 774 777 780 783 786 789 792 794 798 801 805 808 811 814 817 820 823 825 828 831 834 836 838 840 843 846 848 850 851 852
708 709 714 714 715 722 722 716 715 710 698 693 694 689 687 693 699 699 698 699 700 699 699 699 698 700 702 701 699 697 696 699 701 701 703 705 706 709 713 716 719 723 727 730 734 736 739 743 747 751 754 758 761 763 766 769 772 776 779 781 784 787 791 794 798 802 805 808 811 814 817 820 822 825 827 830 833 835 837 840 842 845 847 849 851 852
710 709 711 713 715 717 717 715 713 706 698 696 695 692 692 695 696 694 696 699 699 699 701 701 697 698 701 699 698 699 700 701 702 703 705 707 708 710 712 715 718 722 725 728 732 735 739 742 745 749 753 756 759 762 765 767 771 774 777 780 783 786 790 793 797 800 803 806 810 814 817 820 822 824 827 829 832 835 837 839 841 844 847 849 850 851
709 707 706 708 711 712 711 710 707 702 700 700 697 694 694 695 695 695 695 695 697 698 699 699 698 698 699 699 701 702 701 702 704 704 705 706 707 709 711 713 716 719 723 727 731 734 738 741 745 748 752 755 758 761 764 767 769 772 775 779 782 785 788 792 795 798 801 804 808 812 816 819 821 823 826 828 831 833 836 838 840 843 846 848 849 850
707 707 706 707 709 711 710 707 704 702 701 700 697 696 696 696 696 696 694 694 696 696 696 697 698 699 699 700 701 702 702 704 705 706 706 707 708 709 711 713 717 720 723 727 730 734 738 742 745 748 751 754 757 760 763 766 768 771 774 777 780 783 786 789 793 796 800 804 807 811 814 818 820 823 825 828 830 833 835 837 839 842 844 846 848 849
706 706 707 706 707 710 710 707 705 704 703 702 701 699 698 697 697 696 694 694 695 695 696 697 699 700 702 701 700 701 703 704 705 706 708 708 710 711 712 715 718 720 723 726 729 733 737 740 744 747 750 754 757 760 763 766 768 771 773 776 779 782 785 788 791 795 799 803 806 810 813 816 819 821 824 827 829 832 834 836 839 841 843 845 846 847
706 704 705 707 708 709 710 708 707 706 704 703 702 700 699 698 698 697 697 697 696 697 698 698 699 700 700 701 701 702 704 705 705 706 707 709 710 712 713 715 718 720 723 726 729 733 736 739 743 746 749 753 756 759 762 765 768 771 774 776 779 781 784 787 791 794 798 801 804 807 811 814 817 819 822 825 827 830 833 835 837 839 841 842 844 845
707 705 706 709 709 709 710 709 707 705 704 702 701 700 700 699 697 697 697 697 697 698 699 700 700 700 700 702 703 702 704 706 706 706 708 710 711 713 715 717 719 722 724 726 729 732 735 738 742 745 748 751 754 758 761 764 767 770 773 775 778 781 784 787 790 793 796 799 802 805 808 812 815 817 819 822 825 828 831 833 835 837 839 841 843 844
706 706 708 709 708 708 708 706 704 705 705 703 701 700 700 700 698 696 696 697 697 699 699 700 701 702 702 703 704 703 704 706 707 708 709 710 711 713 715 717 720 723 725 728 731 733 736 739 741 744 748 751 754 757 760 763 766 769 771 774 777 779 782 786 789 792 795 797 799 802 806 809 813 815 818 820 823 827 830 832 835 837 839 841 842 843
704 705 706 705 704 703 701 701 702 704 704 703 702 701 701 701 699 698 699 699 699 700 700 700 701 702 703 704 705 704 704 706 707 709 710 712 713 714 715 717 720 723 725 728 731 734 737 740 742 745 748 750 753 756 759 761 764 767 769 772 775 778 781 784 787 790 793 795 798 802 805 808 811 813 816 819 821 824 827 830 833 835 837 839 841 842
Wind_Speed
4 3 6 10 11 12 11 9 7 5 2 5 4 5 7 5 4 5 5 6 7 8 6 7 9 10 13 12 11 10 10 10 10 10 9 9 8 9 10 8 7 7 6 8 11 13 14 14 16 18 19 20 20 21 24 24 23 24 23 22 22 21 20 20 20 20 20 20 19 18 17 16 17 17 17 17 16 15 14 13 12 12 11 11 10 10
4 7 11 11 7 7 8 7 7 9 5 2 3 3 4 5 4 5 6 5 6 6 2 5 10 10 12 11 9 11 11 12 13 12 10 11 9 8 10 11 8 6 6 9 11 12 14 14 16 18 20 22 22 22 24 24 24 24 24 23 22 21 21 20 20 21 21 21 20 20 20 20 20 19 18 18 16 14 13 12 11 10 9 8 8 7
5 10 10 8 4 5 7 8 8 9 9 2 1 3 1 3 3 4 5 3 2 3 1 5 8 7 10 10 8 9 9 7 9 8 8 11 10 8 9 11 10 8 7 9 10 12 15 16 17 18 19 22 23 24 24 24 24 24 24 23 22 21 20 20 21 22 21 20 21 22 23 23 21 20 19 17 15 13 12 10 9 8 7 5 5 5
6 7 6 8 6 5 5 7 10 8 8 5 3 4 2 3 3 3 4 2 3 2 5 7 6 5 7 7 5 6 5 4 5 5 5 7 8 9 9 10 11 10 9 10 10 10 14 17 18 17 19 20 21 22 21 21 22 23 24 23 22 22 21 21 22 21 20 21 22 23 23 23 22 20 18 16 14 12 11 9 8 6 5 4 4 4
6 4 6 10 8 7 5 6 10 8 7 7 5 5 3 3 1 2 3 1 5 3 7 10 5 3 5 5 5 5 4 5 6 5 6 6 6 7 8 9 10 9 9 11 12 10 11 16 19 18 20 20 20 20 19 20 21 22 23 23 23 23 22 22 23 21 21 24 25 25 24 22 22 20 18 16 14 11 10 9 7 6 4 3 4 5
7 5 6 11 9 8 7 5 8 8 6 6 5 6 6 4 1 1 2 2 5 2 4 7 4 2 3 6 7 5 6 7 7 7 7 8 8 8 8 10 9 9 9 10 11 10 10 14 18 19 20 20 19 20 20 20 21 22 22 22 23 24 23 23 22 22 25 28 28 27 26 24 22 19 16 15 14 11 10 8 7 6 4 4 5 6
5 7 5 9 10 10 9 7 7 9 7 4 5 9 8 5 1 2 3 2 3 3 4 2 4 2 3 6 8 7 8 8 8 10 10 9 10 9 8 9 9 9 10 10 10 10 10 14 17 19 19 19 19 19 20 20 21 22 22 23 23 23 23 22 22 24 27 29 28 28 27 25 23 20 16 14 13 11 10 9 8 7 6 5 7 9
7 9 7 7 10 10 10 9 8 9 7 3 5 10 10 7 4 4 3 1 2 3 3 1 2 4 3 6 9 9 9 9 9 12 13 10 10 11 9 10 11 11 10 11 11 10 11 13 16 18 19 20 20 20 21 20 20 22 22 23 22 22 22 22 23 26 29 29 28 27 26 24 22 21 18 16 13 12 11 10 9 8 8 8 9 11
7 11 10 7 8 9 9 8 8 9 6 4 6 10 9 8 7 6 4 1 1 3 3 5 2 3 3 4 7 9 9 10 11 14 15 13 12 13 12 11 12 12 11 11 12 12 12 13 16 18 18 20 23 22 22 21 21 22 22 22 21 21 22 22 24 28 28 28 28 27 25 23 20 20 19 17 15 13 11 11 11 10 10 11 12 12
4 9 10 8 7 7 7 6 7 9 6 4 5 7 6 5 5 5 5 2 2 2 4 8 5 3 2 3 7 9 9 11 12 13 14 13 13 14 13 12 11 10 11 11 12 12 14 16 18 19 19 21 23 22 23 22 20 21 21 21 20 20 22 23 26 29 28 28 27 26 25 23 22 21 21 19 16 15 13 13 13 12 13 13 14 15
4 4 6 7 7 5 5 5 7 9 8 4 4 3 3 3 2 1 1 3 3 3 6 10 9 5 3 4 7 9 12 15 14 10 11 13 14 14 13 12 11 10 10 11 11 10 15 19 21 20 19 21 22 21 22 21 20 20 20 20 21 21 23 25 27 29 28 27 27 26 25 24 24 24 22 21 19 16 15 15 14 14 14 15 16 17
6 5 4 3 5 6 6 6 6 8 9 5 4 4 1 2 3 3 3 3 2 6 6 10 11 6 5 5 6 10 13 16 15 13 16 18 17 15 14 13 12 10 9 10 10 9 12 16 19 21 19 20 23 22 22 21 20 21 21 21 22 22 24 26 28 28 28 27 26 25 24 24 24 24 22 21 20 17 16 16 16 16 16 17 18 18
6 6 3 2 4 8 7 5 5 6 8 6 4 6 4 2 1 1 0 1 3 6 5 10 12 6 6 6 9 15 16 15 16 17 19 21 19 16 15 14 12 9 8 9 9 9 10 11 16 23 21 20 23 24 23 22 22 22 23 23 24 24 25 26 27 27 27 26 25 24 24 23 23 22 21 20 19 17 17 17 18 18 18 19 19 20
5 5 2 3 4 8 9 7 6 6 8 8 7 6 6 5 4 5 4 3 4 6 4 8 11 4 4 5 9 18 20 17 17 16 15 17 17 16 14 13 12 10 9 9 9 10 9 11 17 23 23 21 23 25 25 24 23 24 24 25 25 25 25 26 26 26 26 25 25 24 24 24 23 22 21 19 18 18 17 17 18 18 19 19 20 21
6 4 5 8 4 7 12 9 6 5 6 6 5 5 5 5 5 6 5 4 4 3 2 4 7 4 3 4 7 15 18 15 10 7 8 10 10 10 10 11 12 12 11 9 9 10 10 13 19 22 22 21 22 25 25 24 24 24 25 26 26 25 25 25 26 26 26 25 25 25 24 23 22 21 20 19 19 18 17 18 18 18 19 19 20 21
6 6 6 7 5 7 11 8 6 6 5 5 4 5 5 5 5 3 3 5 4 2 0 3 3 4 4 4 6 6 13 10 7 7 9 9 9 9 9 10 12 12 12 10 10 10 12 15 19 21 21 20 22 24 24 24 26 26 26 27 27 26 25 25 26 26 25 25 24 24 24 23 22 22 22 21 20 18 17 18 18 19 19 20 21 21
6 5 4 5 8 9 9 9 8 7 6 4 5 7 5 4 6 2 2 1 4 3 2 2 3 3 1 4 6 4 11 9 8 9 11 11 11 12 10 10 11 11 12 11 10 10 12 15 18 21 22 22 22 24 24 25 27 28 28 28 28 27 25 25 25 25 25 25 24 23 23 22 22 23 22 22 21 19 19 18 18 19 20 20 21 21
4 3 5 7 10 10 7 9 10 8 6 6 7 7 3 4 3 2 1 1 3 3 3 2 4 2 2 2 2 6 11 9 10 11 11 11 12 13 12 11 12 11 10 10 10 10 11 14 17 19 22 24 24 24 25 26 27 29 29 29 29 28 26 25 25 25 24 23 22 22 22 22 23 23 22 21 21 20 20 20 19 20 21 21 21 21
1 2 6 6 10 8 6 8 8 7 6 6 6 6 5 4 3 1 2 3 1 2 3 2 1 3 4 4 4 9 12 12 12 12 12 13 14 14 12 12 12 11 9 9 11 10 10 14 18 19 21 25 26 25 25 26 27 29 30 29 29 28 27 26 25 24 23 22 22 22 22 23 23 24 23 21 21 21 21 21 21 21 21 21 21 21
1 0 4 4 9 7 5 5 7 8 8 4 5 6 5 5 5 3 3 3 3 3 2 1 2 3 5 5 9 14 16 16 15 13 15 17 16 15 13 12 13 12 10 10 11 11 9 13 19 22 22 25 27 27 27 28 28 29 29 29 29 27 26 25 24 24 23 23 23 23 23 24 24 24 22 21 21 21 22 23 22 21 21 21 20 20
1 1 3 3 5 7 5 6 9 10 9 5 4 7 7 4 3 3 3 2 3 3 3 2 1 5 6 5 11 16 16 17 18 18 17 16 16 16 14 13 13 12 10 10 12 12 11 14 19 23 24 25 26 26 27 28 28 29 29 29 29 28 27 26 24 24 24 24 24 25 25 25 25 23 22 22 22 23 24 23 22 22 21 21 19 18
2 2 1 2 2 7 8 7 8 10 8 7 5 5 7 6 4 3 4 1 2 3 3 4 3 7 6 5 11 13 14 16 19 19 16 15 17 17 15 15 14 12 11 11 12 12 12 14 19 22 23 24 25 25 25 27 28 28 29 28 28 28 27 26 25 25 24 25 25 25 25 25 24 23 23 23 24 24 24 23 22 22 21 20 19 17
3 1 1 3 4 6 7 4 7 9 7 6 6 4 4 5 5 5 5 3 1 1 1 3 3 6 6 5 9 11 12 14 17 16 14 14 16 16 15 15 14 12 11 12 12 11 12 16 20 22 22 23 25 25 24 25 27 28 29 28 28 27 27 26 26 25 25 25 25 25 25 24 24 24 24 24 25 24 23 23 23 22 20 20 18 16
3 2 2 4 4 3 3 1 5 9 8 4 5 4 5 5 6 6 5 4 4 3 2 2 2 5 6 4 4 5 5 7 10 11 11 12 12 13 14 14 13 12 11 11 11 10 12 16 19 20 21 21 23 24 24 24 25 27 28 28 28 27 27 27 26 26 26 26 25 25 24 24 24 25 25 25 25 24 24 23 23 21 19 18 17 15
5 3 2 2 2 2 3 3 3 6 7 5 4 5 6 6 7 4 2 3 4 4 6 5 4 6 6 3 3 5 6 5 5 5 7 9 10 12 12 12 12 12 11 11 11 10 11 13 14 18 20 21 22 23 24 25 25 26 27 28 28 28 27 27 27 27 26 26 26 25 25 25 25 25 26 25 25 24 24 24 22 20 18 17 15 14
4 3 3 3 2 5 6 5 5 6 6 5 5 8 8 7 9 5 2 4 4 3 5 5 5 6 6 2 6 7 6 7 6 6 7 8 10 12 12 12 12 12 12 12 12 12 12 11 13 17 21 23 23 23 24 25 26 26 27 27 28 28 28 27 27 27 27 27 27 26 26 26 25 26 26 25 25 24 24 23 21 19 17 15 13 12
0 2 3 5 6 7 7 6 6 6 8 7 8 10 7 6 8 6 4 5 5 4 4 5 6 4 5 2 7 8 8 8 8 10 10 9 11 12 12 12 12 12 12 13 12 12 13 12 13 16 20 24 25 24 24 26 27 27 27 27 28 28 28 28 27 27 28 27 28 27 27 26 26 26 26 25 25 25 24 22 20 18 15 12 11 12
0 4 5 5 7 8 8 7 5 6 8 7 8 9 6 6 8 7 5 7 6 6 4 7 5 6 7 7 9 10 11 10 10 12 11 11 12 12 11 11 11 12 12 12 13 13 14 14 13 16 19 23 25 26 25 26 27 28 28 28 28 28 28 28 28 29 28 28 28 28 27 27 26 26 26 25 25 25 23 21 19 16 14 12 11 14
3 5 5 4 5 6 5 6 6 7 7 8 10 9 7 7 10 9 7 7 8 8 6 7 8 10 9 9 12 13 13 13 12 11 10 11 12 12 13 13 12 12 13 14 15 15 15 15 14 16 20 22 25 26 26 25 26 27 28 28 29 29 29 29 30 30 30 29 28 28 27 27 27 27 26 25 25 25 23 21 18 15 13 12 14 16
4 5 5 3 3 4 4 4 6 8 7 8 10 9 9 10 10 9 6 6 8 6 5 7 11 10 8 8 10 9 8 8 8 9 10 13 14 14 15 15 14 14 15 16 16 16 15 15 14 17 20 22 24 26 26 26 26 27 28 29 29 29 30 30 30 30 30 29 28 28 27 27 28 27 26 26 26 25 24 21 18 16 14 14 16 17
3 4 3 1 1 4 6 3 5 8 7 7 6 6 8 8 6 5 2 3 5 2 2 7 6 7 6 3 3 4 7 9 9 11 12 13 15 16 16 15 15 15 15 15 16 15 14 13 14 16 20 23 26 27 27 26 27 28 29 29 30 30 30 31 31 31 30 29 29 28 28 28 28 28 27 27 27 26 24 21 18 16 15 15 17 17
2 2 2 3 1 3 6 4 5 7 8 8 4 5 7 7 5 4 3 4 6 5 5 8 3 6 5 4 6 6 9 12 12 12 12 11 14 16 16 16 16 16 16 15 15 14 14 14 15 16 20 23 26 28 28 28 28 28 29 30 31 31 32 31 31 31 30 30 29 29 29 29 29 29 28 28 28 26 24 21 19 17 16 16 17 17
2 2 2 2 3 3 5 1 4 8 8 3 3 6 7 5 2 2 2 1 4 7 7 5 5 6 4 7 8 7 8 10 11 13 13 13 14 15 16 17 17 17 17 16 16 16 16 16 17 20 23 25 28 29 30 31 30 29 31 33 32 32 33 32 32 32 31 30 31 31 30 30 30 30 30 29 28 27 25 22 19 17 16 16 16 16
1 2 1 2 3 3 6 3 3 6 4 5 6 6 7 5 6 5 1 2 1 2 3 3 3 4 6 8 11 12 12 13 14 14 14 14 14 14 15 16 16 16 15 15 16 16 14 15 18 21 24 26 29 30 31 32 32 32 33 34 33 34 34 33 32 32 31 31 32 31 31 31 31 30 30 29 29 27 25 23 20 17 16 16 16 17
1 1 2 2 3 2 3 4 5 5 6 7 6 4 4 6 10 10 4 2 3 3 1 2 6 8 10 9 10 11 11 10 9 10 12 13 14 15 16 15 14 14 14 14 15 13 13 15 19 21 24 27 29 29 30 31 31 30 31 32 34 34 33 33 32 32 32 32 32 32 32 32 31 30 30 30 29 28 26 24 21 18 16 15 16 17
1 1 2 2 1 1 3 4 5 6 6 5 5 3 2 3 6 8 6 5 4 3 0 3 5 8 8 4 2 3 3 4 6 3 6 9 11 13 15 15 16 16 16 16 16 17 19 22 25 27 28 29 30 30 30 30 30 30 29 30 32 32 32 32 31 31 32 32 32 33 33 33 32 31 31 31 30 29 28 25 22 19 17 16 17 18
3 2 3 2 1 3 3 2 1 1 2 3 2 1 3 2 4 6 4 3 4 0 3 4 4 5 6 5 5 6 7 7 4 1 4 8 10 11 12 12 14 15 16 17 19 22 24 27 28 28 29 29 30 31 31 30 30 30 29 29 30 30 31 31 30 31 32 32 33 34 33 34 34 32 32 31 31 30 29 26 24 21 19 18 19 19
3 3 4 3 0 2 4 3 2 3 1 4 6 6 3 3 6 6 6 1 6 3 3 5 3 6 7 6 7 8 8 6 2 6 6 8 9 10 9 8 9 11 13 16 19 20 22 23 25 27 28 29 30 31 32 31 31 31 30 29 29 30 30 30 30 31 32 32 33 34 34 34 34 33 33 32 31 31 29 27 25 22 20 19 19 21
5 2 5 5 2 2 4 4 2 2 3 6 8 8 7 3 3 3 6 0 7 5 1 5 6 6 6 8 9 9 7 4 6 8 7 10 11 11 11 9 9 11 14 18 21 22 24 26 27 28 29 29 29 30 32 32 32 31 30 29 29 29 29 29 30 31 32 32 33 34 34 34 34 34 33 32 31 30 29 27 25 23 21 19 20 22
6 4 4 4 3 3 4 2 1 2 2 5 7 7 5 1 4 6 4 4 8 6 2 4 8 7 6 7 7 7 7 7 8 7 8 12 11 10 11 12 11 12 15 18 21 23 25 28 29 29 28 28 29 31 32 33 32 30 28 28 28 27 27 28 29 30 30 31 33 33 34 34 34 34 33 32 31 29 28 27 26 24 22 21 21 23
4 4 3 2 2 3 3 2 1 3 3 4 5 5 4 1 7 6 5 7 4 4 4 1 7 8 7 8 6 5 8 7 3 2 8 12 11 10 10 12 13 16 18 21 24 25 26 28 29 30 30 30 30 32 33 33 30 28 27 27 27 27 27 27 28 28 29 31 32 33 33 33 34 34 33 32 30 29 28 27 26 26 24 23 23 23
0 2 2 1 1 2 2 2 1 3 4 3 4 5 2 3 3 4 6 4 2 2 3 2 4 7 9 10 8 8 8 3 4 5 10 13 13 12 10 10 13 15 17 20 24 27 28 26 26 27 28 29 31 33 34 32 30 28 28 27 28 28 27 27 28 29 29 31 32 33 33 33 33 33 32 31 30 30 28 27 26 26 25 25 24 23
3 2 0 1 1 1 2 3 2 2 3 2 4 5 3 3 5 5 2 1 3 2 1 2 4 6 8 9 10 10 6 2 5 5 9 10 11 12 12 12 13 14 17 21 24 27 28 25 25 27 27 28 31 34 34 33 30 27 27 27 28 28 28 28 29 29 29 30 31 31 32 33 33 33 32 31 30 30 30 28 27 27 26 26 25 24
2 3 2 3 2 2 1 1 2 4 5 3 1 1 0 1 5 5 4 2 1 3 4 1 3 5 7 8 8 6 3 1 3 6 8 9 9 10 11 12 13 14 19 22 24 27 28 25 24 26 28 30 32 33 34 34 30 27 27 27 27 28 28 29 30 30 31 31 31 31 31 32 33 32 32 31 31 31 30 29 27 27 27 27 26 26
2 3 4 3 3 3 4 5 5 4 5 4 1 3 1 2 2 4 5 4 2 1 3 3 2 5 7 6 5 4 3 1 2 5 8 9 10 11 11 12 14 17 20 21 24 27 27 25 25 25 26 28 31 32 33 33 30 29 28 27 28 29 30 31 33 33 33 32 32 32 32 32 32 32 32 32 32 32 31 29 28 28 28 28 27 27
3 2 3 3 1 0 1 2 2 2 4 5 3 1 1 2 1 2 5 5 3 1 1 3 3 4 6 6 6 5 4 3 4 4 6 7 9 9 10 10 13 16 19 20 22 26 26 24 25 25 24 26 29 31 31 31 31 31 30 29 30 32 33 34 35 34 31 31 32 32 31 32 32 32 32 33 33 33 31 30 29 29 29 29 29 27
2 1 3 2 2 2 1 2 4 3 4 4 4 2 3 2 0 1 4 4 3 3 3 2 2 3 3 5 6 5 4 6 7 6 5 6 7 7 8 9 10 15 19 21 24 27 26 24 23 23 23 24 27 29 29 29 30 30 30 30 32 33 34 35 35 32 30 30 31 31 31 32 32 32 32 33 33 33 31 31 31 30 30 31 30 28
2 2 3 2 2 3 3 5 5 4 4 3 1 1 2 3 3 3 4 4 4 5 5 4 3 3 2 3 6 6 5 5 7 7 6 6 6 7 7 8 10 14 17 21 25 27 25 23 22 23 23 24 26 28 29 28 28 28 27 29 31 33 34 34 33 31 30 30 32 32 32 33 33 33 33 33 34 34 33 33 32 32 32 32 30 29
1 2 1 2 3 2 2 3 2 2 4 5 4 2 2 1 3 5 5 5 6 6 7 6 5 4 3 3 4 6 6 5 5 6 7 6 6 6 6 8 11 14 17 21 25 27 25 23 24 24 25 26 27 28 28 28 27 26 27 29 31 33 34 32 31 31 31 32 33 33 32 33 34 34 34 34 34 33 33 33 33 32 32 30 28 27
1 1 1 3 4 0 3 4 3 3 1 3 3 4 5 3 3 6 6 6 7 6 5 7 6 5 5 3 3 6 7 5 4 6 6 5 6 7 8 10 13 14 16 19 22 22 22 23 24 25 25 26 28 29 29 28 28 27 28 31 33 34 34 32 30 31 31 32 33 32 32 32 32 33 33 33 33 32 30 30 30 30 30 28 27 26
2 3 3 3 4 5 6 5 4 4 3 4 4 4 5 2 5 7 6 5 6 4 3 6 7 6 6 5 2 6 7 5 6 7 6 5 6 8 12 15 16 16 18 21 21 20 20 21 23 24 25 25 27 29 28 28 28 29 30 32 33 34 34 33 31 31 31 31 31 31 31 31 31 32 32 32 33 33 30 28 27 28 28 28 27 27
Wind_Direction
156 169 208 204 206 202 200 193 209 281 34 120 116 143 168 173 223 231 224 229 167 162 210 176 150 157 163 165 161 162 162 162 165 164 161 160 162 166 167 171 169 165 157 144 154 167 170 170 169 169 171 170 170 173 176 176 175 175 175 175 174 176 179 180 178 176 174 169 163 159 155 146 140 140 141 139 139 138 137 138 138 136 133 134 131 128
154 199 223 211 201 189 184 173 201 254 275 78 86 134 161 180 219 237 221 224 176 158 222 156 145 161 167 163 164 162 164 177 178 172 168 164 165 168 168 172 167 156 143 139 152 163 165 167 167 168 169 170 169 170 174 176 176 177 177 178 178 177 180 183 183 178 174 170 165 157 150 143 138 139 141 139 137 138 137 135 133 130 131 135 132 131
200 221 218 186 170 155 165 165 174 228 250 235 134 126 154 213 214 252 253 245 149 131 183 159 145 157 168 161 164 166 165 178 181 178 169 163 166 169 171 171 164 156 151 152 157 160 163 166 167 167 168 172 173 172 174 176 176 176 177 179 179 178 179 180 178 175 169 164 162 155 148 145 141 138 140 140 139 141 141 134 128 125 125 131 130 126
209 226 175 151 178 173 163 167 163 199 240 231 174 143 210 243 168 213 268 4 58 102 145 145 132 147 159 147 148 164 155 133 156 169 155 164 174 176 179 175 170 167 159 161 166 162 160 163 167 168 169 174 175 175 176 176 176 177 178 181 180 178 177 175 172 170 166 157 153 149 147 147 143 138 140 143 142 143 143 134 126 121 113 115 117 112
235 246 153 155 183 186 172 173 168 180 226 228 197 155 187 242 186 197 225 87 43 52 126 121 106 161 160 152 160 159 151 143 149 155 151 171 187 184 186 185 181 175 163 165 170 164 156 161 168 170 172 175 177 179 179 177 178 178 180 183 181 178 175 173 170 167 162 153 147 144 142 141 138 137 143 147 143 140 138 131 125 118 109 117 119 111
251 265 171 162 176 186 191 194 180 180 206 234 214 166 174 211 260 331 237 121 63 31 169 124 106 223 199 182 179 158 166 166 160 174 172 170 184 193 191 189 189 182 174 173 170 163 157 162 167 168 172 175 177 182 181 178 180 180 180 181 178 176 174 171 168 165 160 154 151 149 145 142 139 140 146 149 144 139 134 126 121 116 115 128 126 119
228 248 205 175 179 182 201 216 197 178 179 232 214 169 173 199 197 296 268 149 124 195 213 140 120 180 233 209 189 168 178 176 166 185 190 176 183 195 193 188 191 184 178 180 176 168 164 165 164 165 170 174 177 181 180 180 181 179 178 178 176 174 174 171 166 164 160 157 157 156 154 153 154 151 148 149 145 140 134 126 122 118 117 123 125 122
183 218 230 201 184 183 204 213 199 175 165 228 209 162 167 193 196 239 254 154 172 166 165 227 123 138 220 217 186 173 181 183 180 192 197 190 187 192 194 192 192 189 178 175 180 180 179 174 165 163 167 172 177 179 179 181 180 177 176 176 176 174 173 170 166 164 162 161 160 159 159 160 163 159 150 148 145 139 137 130 125 122 121 122 123 122
163 198 217 203 192 200 205 197 176 160 164 223 188 153 163 186 187 210 226 185 151 110 162 240 196 133 232 222 170 176 190 192 195 200 201 195 188 191 195 195 194 191 180 176 182 185 185 179 168 164 166 169 173 176 178 179 177 176 175 174 174 171 169 168 166 165 164 165 164 163 163 161 161 158 150 148 144 141 140 132 127 126 126 124 122 122
171 193 201 193 205 212 189 168 157 156 186 218 157 128 127 154 171 191 203 178 112 111 205 220 196 148 250 233 170 178 195 201 204 205 203 196 190 193 195 193 191 187 182 181 184 183 180 179 173 168 167 167 169 172 174 175 174 174 173 172 170 168 168 167 167 166 164 167 169 168 168 163 157 153 149 148 144 143 141 133 131 129 127 126 122 123
250 216 198 192 206 202 156 162 163 161 186 190 131 119 83 62 56 99 161 108 105 246 226 200 192 180 227 232 187 182 195 199 199 198 195 194 193 194 194 193 189 183 182 180 178 176 173 174 174 172 169 166 166 169 171 173 174 173 172 170 166 166 168 167 167 168 167 170 173 173 172 166 160 156 153 151 146 145 143 137 135 132 130 127 124 123
268 253 233 212 183 163 155 179 167 159 184 181 132 147 142 342 350 15 15 65 143 245 231 183 181 188 222 235 195 198 209 200 194 193 191 192 193 192 191 191 189 182 174 173 173 171 165 166 169 171 169 164 165 169 170 171 171 171 172 168 163 163 166 167 168 169 170 174 177 177 174 170 165 162 160 156 150 149 147 143 140 136 133 129 126 124
253 249 262 295 194 167 164 181 169 163 185 182 138 136 150 187 222 208 300 106 207 247 233 169 167 186 234 235 196 201 214 206 197 197 192 189 188 189 188 186 187 180 168 169 172 171 166 163 165 166 166 164 165 168 170 170 168 169 170 167 161 161 164 166 169 171 174 178 180 179 177 173 169 166 163 158 154 153 153 149 145 140 138 133 129 126
237 272 248 232 221 178 171 178 183 185 184 182 175 165 167 161 166 191 198 216 232 252 250 168 163 192 254 244 206 201 208 208 203 201 191 186 187 186 183 178 179 180 174 172 174 174 172 167 165 164 165 168 166 165 167 169 167 166 167 165 160 159 163 166 170 174 177 179 180 179 177 174 170 166 164 160 157 156 155 152 148 145 141 136 130 126
201 254 219 201 203 178 185 192 178 162 170 188 172 145 165 171 168 186 192 206 221 247 282 150 156 191 195 234 236 208 205 204 196 184 166 175 186 178 170 169 175 183 181 176 177 176 172 168 165 163 166 168 163 162 165 167 167 164 163 163 160 159 164 168 171 175 177 178 178 176 175 173 171 168 164 161 159 156 155 153 151 146 142 136 129 126
191 244 237 207 213 188 187 192 157 134 162 189 138 140 192 186 153 157 181 180 167 152 63 142 187 222 194 269 301 205 195 186 150 132 142 162 175 166 166 172 178 185 182 180 178 172 167 166 165 163 164 165 160 160 164 165 165 162 160 161 161 162 167 169 172 175 176 176 175 174 173 172 171 169 164 160 157 156 156 154 150 145 140 135 130 127
182 251 266 188 216 217 186 178 179 173 172 168 162 181 197 151 119 104 218 163 105 143 222 180 212 284 271 306 334 139 166 161 140 146 156 165 169 170 178 181 183 187 182 179 175 167 164 164 164 163 162 162 161 161 163 163 164 162 160 159 159 161 165 168 171 173 173 173 171 172 173 173 173 170 166 161 157 156 156 153 147 141 138 136 133 131
161 260 277 173 197 225 193 172 190 191 156 149 193 196 128 94 97 81 209 313 73 156 256 218 187 206 175 248 327 136 156 163 159 160 162 166 172 180 185 183 183 185 178 173 168 162 162 161 159 160 162 163 163 163 161 161 162 161 160 160 159 160 162 165 168 170 172 172 171 171 172 173 173 170 166 162 158 157 155 151 146 141 138 138 136 134
98 287 276 186 181 210 186 166 190 205 181 159 180 180 135 150 197 143 172 205 156 180 256 298 247 223 194 194 174 162 171 177 170 163 168 176 180 184 184 180 179 177 172 169 165 161 162 161 158 158 160 160 160 161 159 159 159 157 158 160 160 160 161 164 167 169 171 174 173 171 171 171 170 167 164 160 158 159 156 151 148 144 141 140 139 137
349 30 273 208 174 172 168 174 186 203 206 163 133 165 173 172 188 194 170 167 180 189 197 271 320 265 230 203 180 180 183 178 170 172 184 187 183 182 181 178 177 175 174 170 167 165 163 162 159 158 158 157 157 159 158 159 158 155 156 158 158 158 159 162 166 167 168 170 170 167 166 166 165 164 162 160 160 159 156 153 151 148 144 142 141 139
312 253 276 266 175 160 189 205 191 192 195 175 154 178 189 174 160 193 196 138 145 167 169 167 232 262 250 201 187 192 185 176 177 183 190 188 181 181 182 179 177 176 174 168 166 165 162 161 158 155 156 154 153 156 158 159 157 155 156 159 159 160 159 160 163 165 165 164 164 163 161 162 162 162 161 160 159 157 155 154 153 151 148 144 141 141
202 220 276 292 191 182 207 205 184 187 175 163 183 202 193 174 132 160 215 230 113 161 182 159 189 257 256 189 188 195 185 182 186 186 186 181 178 181 183 179 176 174 172 167 165 163 160 159 154 151 153 152 151 154 159 159 157 156 158 159 161 161 161 163 163 164 164 162 162 161 160 161 162 162 161 159 159 157 155 155 154 152 151 145 142 143
180 223 301 277 239 215 226 213 174 171 141 140 193 209 175 156 128 147 198 230 183 182 163 126 173 255 261 208 195 194 186 189 191 185 180 177 178 180 179 176 173 172 171 166 162 162 160 157 153 150 152 152 151 156 160 159 158 159 159 160 161 161 162 165 165 166 165 163 162 162 161 162 162 162 162 160 159 158 156 156 155 155 153 147 145 146
189 231 266 279 279 231 241 292 155 157 137 146 210 187 152 176 181 167 169 179 189 190 148 125 230 261 278 272 199 171 162 182 192 188 178 172 172 174 173 171 169 168 167 162 159 159 156 154 152 152 153 152 154 158 161 160 159 159 160 161 163 163 164 166 166 166 166 164 163 162 162 163 163 163 162 161 159 158 158 157 156 157 155 150 149 150
200 204 208 281 333 153 158 94 128 168 166 179 211 186 171 173 168 163 126 141 195 209 161 153 215 247 279 326 103 109 99 127 171 178 165 162 165 168 168 167 167 166 162 157 154 153 152 153 156 158 157 154 157 161 162 162 160 160 161 162 164 165 166 168 168 167 167 165 163 163 164 163 163 164 162 160 159 158 158 158 157 158 157 153 151 149
207 184 152 181 171 171 178 175 182 181 172 185 197 191 188 162 149 159 149 151 216 229 154 156 208 250 291 17 118 126 117 128 148 146 145 157 163 166 167 165 166 166 163 158 155 155 155 157 162 163 159 157 161 164 164 163 163 162 163 164 166 167 167 168 170 168 167 166 165 164 164 163 164 164 162 161 159 159 159 158 159 159 157 157 154 148
257 239 199 187 193 195 190 205 215 173 161 184 187 179 182 163 143 127 127 171 198 175 172 214 204 218 275 190 148 157 154 153 159 155 154 159 162 167 169 166 164 165 166 163 159 159 161 162 166 165 162 161 163 166 167 165 165 165 165 165 166 168 169 169 170 169 168 167 166 165 165 165 165 164 163 162 160 159 160 159 161 161 158 160 160 153
157 268 244 202 217 216 191 195 200 154 156 170 164 163 171 161 146 134 159 193 165 137 217 254 193 182 228 206 178 180 171 165 172 170 166 161 160 163 162 160 161 161 163 164 163 165 166 166 168 166 165 164 163 166 169 168 168 168 167 166 167 169 170 170 170 169 168 167 166 166 166 166 165 164 163 163 161 161 160 161 162 160 157 160 161 156
189 254 233 201 254 256 218 206 173 139 149 157 152 158 167 168 168 172 194 195 152 153 217 226 181 191 219 205 192 191 181 176 174 165 156 150 152 157 158 160 163 162 164 168 170 173 172 170 171 168 167 166 164 166 169 170 170 169 167 167 168 170 171 171 170 169 167 167 167 167 167 167 166 165 164 163 163 162 161 161 161 157 153 156 157 156
184 249 237 211 292 302 289 248 171 138 139 150 152 160 164 172 178 178 195 186 157 171 202 175 181 210 227 208 199 191 168 157 145 137 143 150 155 161 164 166 168 169 172 175 175 177 176 174 173 169 167 168 168 167 169 170 170 168 166 166 168 169 171 171 170 169 168 168 168 168 168 168 168 167 166 165 164 163 162 162 160 156 153 154 156 155
203 249 248 124 335 309 334 358 142 140 135 133 132 136 142 155 160 149 172 160 128 133 136 132 170 242 256 201 141 101 109 119 132 150 156 160 163 164 168 172 173 175 177 179 177 176 176 174 172 171 171 172 172 170 170 171 171 168 167 167 169 170 172 173 171 170 170 170 170 170 170 170 170 169 168 167 166 165 164 162 160 156 154 153 154 154
191 247 301 58 92 289 338 35 116 113 104 108 110 128 135 138 145 156 190 177 151 146 112 102 145 251 249 142 113 117 138 142 152 163 162 165 169 168 172 176 177 179 179 179 178 175 176 177 176 176 175 173 172 172 173 172 171 169 167 168 171 172 172 173 172 171 172 172 171 171 171 171 170 169 169 168 167 166 164 162 160 156 153 152 153 153
139 193 285 65 127 266 318 345 129 102 97 129 211 184 161 146 149 184 241 207 142 138 131 139 203 219 178 142 139 144 153 156 166 171 168 171 174 175 180 180 180 182 181 178 180 180 180 182 180 178 176 174 175 176 176 174 173 172 171 171 172 172 172 173 173 172 172 173 173 173 173 172 171 169 169 170 169 166 164 162 159 153 150 149 152 153
115 143 182 106 135 238 302 322 107 108 142 225 235 196 172 158 145 142 191 298 48 127 166 172 171 151 146 162 166 169 179 182 181 180 174 170 173 179 185 186 184 184 181 180 182 183 182 180 178 177 176 176 178 178 177 177 176 176 174 173 173 173 173 173 172 172 173 173 174 174 174 173 172 170 170 171 169 167 164 163 158 151 148 148 152 154
357 68 107 80 116 180 332 36 110 164 219 244 262 243 196 150 129 117 87 12 45 26 302 152 145 162 176 184 179 179 191 186 168 171 177 176 177 179 182 187 186 181 181 183 183 182 180 175 174 175 177 178 179 178 177 178 178 176 174 173 173 173 173 172 171 172 174 173 174 175 174 173 171 170 170 171 171 169 166 164 159 152 148 149 152 152
239 158 102 65 92 111 29 67 148 213 257 293 309 276 166 121 115 98 50 357 18 44 292 216 199 182 169 154 119 125 124 95 86 116 180 185 186 185 184 185 183 181 184 184 182 181 180 179 178 178 178 178 177 177 178 179 178 174 172 173 173 173 173 172 171 173 174 174 175 176 175 174 171 170 170 171 172 171 168 165 162 157 151 149 148 146
165 169 102 57 78 116 98 109 183 287 325 339 325 214 164 181 184 139 96 325 304 56 171 226 231 168 127 88 74 88 85 77 65 309 220 197 196 197 195 190 184 186 187 185 185 185 183 182 181 179 177 176 176 177 178 178 177 174 171 173 174 174 173 173 173 175 176 176 176 177 177 176 173 171 171 172 173 172 170 168 166 162 157 153 149 145
107 166 135 116 32 88 97 81 36 58 166 250 261 263 274 254 211 160 113 333 293 296 169 185 165 138 131 112 108 111 98 94 186 245 223 194 193 194 192 193 190 189 187 181 180 179 178 179 178 177 176 176 178 179 179 177 176 174 172 174 176 175 175 176 176 177 178 177 177 177 178 178 177 175 173 174 176 175 173 171 170 168 165 161 153 147
26 50 105 97 38 41 91 99 111 143 194 243 254 274 298 283 208 118 90 340 283 297 127 138 136 141 149 139 133 128 115 135 223 236 203 182 187 187 183 184 184 182 183 182 178 175 175 175 175 176 178 178 178 180 179 178 176 174 175 177 178 177 178 179 180 180 179 178 178 179 180 180 180 180 177 177 179 179 177 175 174 173 170 165 157 149
355 7 54 63 43 55 84 97 218 203 215 251 261 279 286 241 92 85 112 236 268 293 330 130 146 156 156 147 145 141 149 185 227 234 184 171 177 181 182 183 180 176 176 177 178 177 174 173 173 175 178 179 179 179 179 178 176 176 177 177 177 180 183 183 182 180 177 177 178 179 181 182 182 182 181 180 181 181 181 179 177 176 174 168 158 151
336 7 52 85 58 42 69 92 267 262 251 262 281 287 264 122 78 96 193 226 241 267 287 197 153 159 158 155 160 181 191 197 218 143 147 155 165 177 180 178 175 176 176 175 176 175 172 174 178 178 180 181 178 178 179 177 176 177 177 176 179 185 187 184 180 177 176 178 179 179 181 183 184 184 184 183 183 183 182 182 180 180 179 173 164 157
311 12 37 93 49 19 65 97 5 284 254 255 295 303 307 103 117 193 217 230 216 220 285 286 180 174 172 170 184 210 212 177 72 114 150 160 169 172 166 160 162 169 175 175 175 175 173 175 180 180 181 181 177 177 178 178 178 179 178 180 185 187 185 182 179 177 177 179 179 180 182 184 185 185 185 186 185 184 182 183 183 184 183 180 175 170
164 135 98 217 158 54 45 56 54 243 250 314 340 338 25 105 189 211 191 202 223 187 115 299 224 193 182 188 204 217 215 110 86 139 160 165 169 165 162 165 165 165 169 171 175 178 175 174 178 179 180 180 178 178 179 180 181 181 181 185 188 184 182 181 178 176 178 179 180 181 183 185 185 186 187 187 187 185 183 183 184 186 188 186 183 179
150 148 174 211 181 121 104 220 209 217 251 305 35 159 224 179 190 176 132 122 206 164 143 182 248 219 203 206 219 229 227 108 119 149 156 162 169 166 167 170 166 166 172 174 176 178 176 174 177 178 179 180 179 180 181 182 182 181 184 188 186 179 177 177 175 177 179 180 180 183 186 187 186 187 188 188 187 186 184 184 186 188 191 190 187 183
226 199 169 171 180 158 176 210 224 233 265 298 118 162 260 2 138 152 133 107 63 158 159 135 161 218 217 216 229 249 262 246 162 166 167 170 172 171 171 173 172 172 173 173 174 176 177 176 177 176 177 180 180 181 184 185 183 182 185 187 182 178 176 175 176 179 181 181 182 185 186 186 186 187 189 188 186 185 184 184 187 189 192 192 188 185
256 221 123 120 152 122 167 226 292 325 314 328 352 31 58 56 158 143 103 85 46 326 179 112 127 187 206 201 203 221 225 183 158 177 183 175 173 171 166 167 170 169 167 167 171 174 176 176 176 176 176 178 180 182 184 187 186 186 187 186 182 180 178 176 177 180 180 180 182 183 184 184 184 186 188 187 187 187 187 187 186 187 189 190 190 189
279 124 102 94 84 87 108 297 328 328 300 312 338 0 44 61 253 113 89 79 47 42 46 52 99 129 163 174 174 184 189 165 155 165 173 165 166 167 159 157 163 166 168 169 170 171 173 174 175 175 174 176 180 182 184 188 191 191 188 185 182 180 178 177 178 179 179 179 180 181 183 184 183 184 186 187 187 189 191 191 190 190 191 192 193 194
306 66 85 92 90 117 207 259 290 299 286 292 287 158 64 55 46 48 69 85 77 64 55 49 64 76 95 151 152 144 149 161 161 160 162 162 164 163 160 163 166 167 168 168 169 171 173 174 174 174 174 176 180 183 185 188 192 192 187 182 180 178 177 177 178 178 178 179 180 181 184 185 185 184 185 187 188 191 193 195 196 197 199 199 199 199
340 14 65 117 75 63 211 238 282 8 357 345 347 341 314 343 71 61 52 59 63 56 51 53 53 55 79 118 139 129 129 148 162 157 156 157 156 155 155 156 157 159 162 166 170 174 175 174 174 174 175 178 180 182 185 188 190 189 185 182 180 178 176 177 179 179 179 180 181 183 185 186 186 186 186 187 190 193 196 199 202 204 206 207 208 207
32 14 106 103 91 139 219 204 168 126 121 294 313 337 323 312 74 68 45 37 39 36 51 62 54 46 57 78 130 134 133 146 157 148 147 153 154 152 147 144 146 153 160 164 169 174 175 176 176 175 176 179 180 182 185 187 187 187 186 184 182 179 178 178 179 179 180 182 182 184 185 186 187 188 187 188 189 192 196 201 205 209 212 214 215 216
168 175 169 142 160 215 226 206 161 135 161 235 267 320 326 340 74 68 51 39 28 13 45 74 68 52 33 18 71 139 144 152 152 144 137 141 150 151 151 152 153 155 160 163 166 169 172 173 175 176 177 179 181 183 186 186 185 185 185 184 183 182 181 180 179 181 183 183 183 185 186 187 187 188 188 189 190 192 194 198 203 209 214 217 219 220